This is the latest recevied weather packets stored in our database for station/object N1YZ. If no packets are shown the sender has not sent any weather packets the latest 10 day(s).
| Time | Temp. | Humidity | Pressure | Rain* | Wind** | Luminosity | Snow |
|---|---|---|---|---|---|---|---|
| 1777682538 | 13.89° C | 86% | 1032.9 hPa | 0 mm | - | 0 W/m² | - |
| 1777682236 | 14.44° C | 87% | 1032.8 hPa | 0 mm | - | 0 W/m² | - |
| 1777681934 | 14.44° C | 86% | 1033.2 hPa | 0 mm | - | 0 W/m² | - |
| 1777681629 | 14.44° C | 85% | 1033.1 hPa | 0 mm | - | 0 W/m² | - |
| 1777681327 | 14.44° C | 83% | 1032.9 hPa | 0 mm | - | 1 W/m² | - |
| 1777681024 | 14.44° C | 83% | 1032.9 hPa | 0 mm | - | 1 W/m² | - |
| 1777680722 | 14.44° C | 83% | 1033.1 hPa | 0 mm | - | 1 W/m² | - |
| 1777680419 | 14.44° C | 83% | 1032.9 hPa | 0 mm | - | 2 W/m² | - |
| 1777680117 | 14.44° C | 82% | 1032.8 hPa | 0 mm | - | 2 W/m² | - |
| 1777679812 | 15° C | 83% | 1032.6 hPa | 0 mm | - | 3 W/m² | - |
| 1777679509 | 15° C | 83% | 1032.6 hPa | 0 mm | - | 4 W/m² | - |
| 1777679204 | 15° C | 83% | 1032.5 hPa | 0 mm | - | 4 W/m² | - |
| 1777678902 | 15° C | 83% | 1032.6 hPa | 0 mm | - | 6 W/m² | - |
| 1777678599 | 15° C | 84% | 1032.6 hPa | 0 mm | - | 7 W/m² | - |
| 1777678296 | 15° C | 84% | 1032.7 hPa | 0 mm | - | 8 W/m² | - |
| 1777677992 | 15.56° C | 83% | 1032.5 hPa | 0 mm | - | 9 W/m² | - |
| 1777677690 | 15.56° C | 81% | 1032.5 hPa | 0 mm | - | 10 W/m² | - |
| 1777677387 | 15.56° C | 79% | 1032.5 hPa | 0 mm | - | 10 W/m² | - |
| 1777677086 | 15.56° C | 79% | 1032.5 hPa | 0 mm | - | 12 W/m² | - |
| 1777676784 | 15.56° C | 78% | 1032.5 hPa | 0 mm | - | 11 W/m² | - |
| 1777676482 | 16.11° C | 80% | 1032.5 hPa | 0 mm | - | 11 W/m² | - |
| 1777676179 | 16.11° C | 76% | 1032.6 hPa | 0 mm | - | 13 W/m² | - |
| 1777675875 | 16.11° C | 77% | 1032.4 hPa | 0 mm | - | 15 W/m² | - |
| 1777675573 | 16.11° C | 76% | 1032.4 hPa | 0 mm | - | 18 W/m² | - |
| 1777675269 | 16.11° C | 76% | 1032.4 hPa | 0 mm | - | 21 W/m² | - |
* Rain latest hour (hover to see other rain measurements)
** Current wind speed in m/s (hover to see current wind gust speed)